[[{"header":{"parameterUnit":"m.s-1","parameterCategory":1,"la1":30.2991,"la2":30.254,"lo1":-89.0895,"lo2":-89.0444,"dy":0.0017,"dx":0.0017,"nx":28,"ny":28,"refTime":"2023-10-10T03:00:00:Z","depth":0,"parameterNumber":2,"parameterNumberName":"U-component_of_WINDS"},"data":[0,0,0,0,0,0,0,0,0,0,0,0,0,0,0,0,0,0,0,0,0,0,0,0,0,0,0,0,0,0,0,0,0,0,0,0,0,0,0,0,0,0,0,0,0,0,0,0,0,0,0,0,0,0,0,0,0,0,-2.7651,-2.7653,0,-2.7761,-2.7762,-2.7763,-2.7715,-2.7712,-2.771,-2.7707,-2.782,-2.7826,-2.7831,0,0,0,0,0,0,0,0,0,0,0,0,0,-2.7402,-2.7407,-2.7651,-2.7653,-2.7654,-2.776,-2.7762,-2.7763,-2.7716,-2.7712,-2.7709,-2.7706,-2.7818,-2.7825,-2.7832,0,0,0,0,0,0,0,0,0,0,0,0,0,-2.7511,-2.7409,-2.7651,-2.7643,-2.7643,-2.776,-2.7762,-2.7764,-2.7716,-2.7712,-2.7708,-2.7704,-2.7816,-2.7824,-2.7833,-2.7964,0,0,-2.7858,-2.7861,0,0,0,0,0,0,0,0,-2.7505,-2.752,-2.7643,-2.7644,-2.7644,-2.772,-2.7716,-2.7831,-2.7717,-2.7689,-2.7707,-2.7702,-2.779,-2.78,-2.783,-2.7969,-2.7974,-2.7858,-2.7864,-2.7867,-2.7869,0,0,0,0,0,0,0,-2.7498,-2.7515,-2.7695,-2.7645,-2.7646,-2.7634,-2.7645,-2.7737,-2.7761,-2.7691,-2.7688,-2.7701,-2.779,-2.7822,-2.7832,-2.7976,-2.7858,-2.7866,-2.7871,-2.7874,-2.8229,-2.8233,0,0,0,0,0,0,-2.749,-2.7509,-2.7691,-2.7698,-2.7563,-2.7642,-2.7654,-2.77,-2.776,-2.7765,-2.7704,-2.7698,-2.781,-2.7822,-2.7836,-2.7994,-2.7867,-2.7875,-2.7879,-2.8224,-2.823,-2.8235,0,0,0,0,0,0,-2.7485,-2.7507,-2.7687,-2.7603,-2.7625,-2.7651,-2.7702,-2.7704,-2.7736,-2.777,-2.7774,-2.7733,-2.7807,-2.7824,-2.7932,-2.7997,-2.7878,-2.7886,-2.8219,-2.8226,-2.8232,-2.8311,0,0,0,0,0,0,-2.7478,-2.7505,-2.7555,-2.7604,-2.7629,-2.7781,-2.7706,-2.7709,-2.775,-2.7744,-2.7797,-2.7803,-2.7805,-2.792,-2.7941,-2.8006,-2.7892,-2.8213,-2.8222,-2.823,-2.8303,-2.8319,-2.8334,0,0,0,0,0,-2.7469,-2.7573,-2.7558,-2.758,-2.7692,-2.7785,-2.78,-2.78,-2.7756,-2.7806,-2.7828,-2.7801,-2.7987,-2.7932,-2.7954,-2.8023,-2.8209,-2.822,-2.823,-2.8296,-2.8316,-2.8333,0,0,0,0,0,0,-2.7531,-2.7579,-2.7563,-2.7686,-2.7732,-2.7777,-2.7841,-2.7822,-2.7882,-2.7873,-2.7872,-2.7884,-2.7996,-2.8021,-2.7959,-2.8154,-2.8091,-2.8106,-2.8134,-2.8154,-2.8169,-2.8161,-2.7899,0,0,0,0,0,-2.7559,-2.763,-2.7668,-2.7773,-2.7797,-2.7815,-2.7855,-2.7852,-2.7899,-2.7919,-2.7948,-2.7996,-2.8065,-2.8111,-2.8176,-2.8306,-2.8317,-2.8364,-2.838,-2.8393,-2.8406,-2.8476,-2.8498,-2.8268,-2.8268,-2.8267,0,0,-2.7618,-2.7653,-2.7697,-2.7786,-2.7821,-2.7895,-2.7832,-2.7912,-2.7967,-2.7931,-2.8035,-2.8059,-2.8112,-2.8231,-2.8285,-2.8255,-2.8472,-2.8405,-2.8415,-2.8422,-2.8489,-2.8511,-2.853,-2.8275,-2.8273,-2.8272,0,0,-2.7762,-2.7795,-2.7886,-2.7923,-2.7977,-2.7988,-2.801,-2.8058,-2.8072,-2.8176,-2.8151,-2.8216,-2.8335,-2.8374,-2.841,-2.8569,-2.8546,-2.859,-2.8672,-2.8741,-2.8759,-2.8775,-2.8832,-2.8852,-2.8603,-2.8603,-2.8603,0,-2.7828,-2.7938,-2.7936,-2.8018,-2.8058,-2.8029,-2.8121,-2.8156,-2.8229,-2.8258,-2.8223,-2.8371,-2.8405,-2.8533,-2.8572,-2.8602,-2.8627,-2.8584,-2.8756,-2.8772,-2.8787,-2.8842,-2.8863,-2.8608,-2.8608,-2.8607,-2.8607,0,-2.8016,-2.8093,-2.816,-2.823,-2.8278,-2.8365,-2.8376,-2.8425,-2.8417,-2.8433,-2.8539,-2.8579,-2.8651,-2.8682,-2.8675,-2.881,-2.8789,-2.8755,-2.8692,-2.8814,-2.8865,-2.8886,-2.8615,-2.8614,-2.8612,-2.8611,0,0,-2.8203,-2.8271,-2.8296,-2.8327,-2.8384,-2.8444,-2.853,-2.86,-2.8642,-2.8693,-2.8766,-2.8867,-2.8836,-2.8876,-2.8874,-2.8935,-2.9059,-2.8893,-2.8895,-2.8923,-2.9209,-2.9234,-2.9258,-2.9044,-2.9048,-2.9051,-2.9205,0,-2.8351,-2.8501,-2.8502,-2.8641,-2.8711,-2.8684,-2.8759,-2.8803,-2.8819,-2.8882,-2.89,-2.8972,-2.8926,-2.895,-2.9009,-2.9031,-2.9116,-2.902,-2.9112,-2.9115,-2.9099,-2.9285,-2.9312,-2.9455,-2.9225,-2.9228,-2.923,0,-2.8545,-2.8602,-2.8747,-2.8794,-2.8824,-2.8891,-2.8956,-2.9016,-2.9065,-2.9073,-2.9118,-2.9107,-2.9195,-2.9129,-2.9251,-2.9185,-2.9223,-2.924,-2.9245,-2.9254,-2.918,-2.9299,-2.9501,-2.9522,-2.9262,-2.9259,-2.9257,0,-2.8667,-2.878,-2.8881,-2.8909,-2.8966,-2.9014,-2.904,-2.9085,-2.9128,-2.9185,-2.9212,-2.9279,-2.9316,-2.9368,-2.9376,-2.9327,-2.9498,-2.9433,-2.9507,-2.9507,-2.9545,-2.9542,-2.9756,-2.9569,-2.9569,-2.9568,-2.9568,0,-2.8833,-2.8923,-2.8937,-2.8999,-2.9099,-2.9099,-2.9199,-2.9221,-2.9261,-2.9328,-2.9309,-2.9372,-2.9377,-2.9443,-2.9449,-2.9549,-2.9566,-2.9575,-2.9575,-2.9577,-2.9576,-2.9601,-2.9592,-2.9574,-2.9573,-2.9571,-2.957,0,-2.8986,-2.8999,-2.9108,-2.9152,-2.9166,-2.9238,-2.9276,-2.9336,-2.9351,-2.9436,-2.9456,-2.9479,-2.9555,-2.9567,-2.9656,-2.966,-2.978,-2.977,-2.9763,-2.9762,-2.9836,-2.9829,-3.0074,-3.0106,-2.9898,-2.99,-2.9901,0,-2.9091,-2.916,-2.9212,-2.9255,-2.9283,-2.9353,-2.9396,-2.9399,-2.9444,-2.9505,-2.9558,-2.9632,-2.9691,-2.9813,-2.9838,-2.9907,-2.9899,-2.998,-2.9909,-2.9908,-2.99,-2.9896,-2.9903,-2.9993,-2.9996,-2.9998,-2.9999,0,-2.9277,-2.9279,-2.9342,-2.9407,-2.9459,-2.9511,-2.9559,-2.9596,-2.9605,-2.9658,-2.9734,-2.978,-2.9871,-2.9945,-3.0012,-3.004,-3.0022,-3.0021,-3.0042,-3.0044,-3.0037,-3.0042,-2.9801,-3.0016,-3.0014,-3.0013,-3.0012,-3.0011,-2.9409,-2.9469,-2.9515,-2.9585,-2.9622,-2.9668,-2.9726,-2.9748,-2.9812,-2.9885,-2.9883,-2.9968,-3.0015,-3.0104,-3.0136,-3.0203,-3.0177,-3.0207,-3.0215,-3.0222,-3.0229,-3.0027,-3.0215,-3.0215,-3.0214,-3.0214,-3.0214,0,-2.9594,-2.9622,-2.9687,-2.9755,-2.9811,-2.9787,-2.984,-2.9888,-2.9963,-3.0008,-3.0066,-3.0155,-3.0226,-3.0257,-3.0327,-3.0375,-3.0368,-3.0393,-3.039,-3.0397,-3.0249,-3.0224,-3.0397,-3.0397,-3.0397,-3.0397,-3.0397,-3.0397,-2.9697,-2.9796,-2.9805,-2.9922,-2.995,-3.0032,-3.0064,-3.0106,-3.0142,-3.0242,-3.0301,-3.032,-3.036,-3.0433,-3.0497,-3.0504,-3.0531,-3.056,-3.0564,-3.0425,-3.0407,-3.0389,-3.0366,-3.0566,-3.0566,-3.0706,-3.0708,-3.0709]},{"header":{"parameterUnit":"m.s-1","parameterCategory":1,"la1":30.2991,"la2":30.254,"lo1":-89.0895,"lo2":-89.0444,"dy":0.0017,"dx":0.0017,"nx":28,"ny":28,"refTime":"2023-10-10T03:00:00:Z","depth":0,"parameterNumber":3,"parameterNumberName":"V-component_of_WINDS"},"data":[0,0,0,0,0,0,0,0,0,0,0,0,0,0,0,0,0,0,0,0,0,0,0,0,0,0,0,0,0,0,0,0,0,0,0,0,0,0,0,0,0,0,0,0,0,0,0,0,0,0,0,0,0,0,0,0,0,0,0.8808,0.8809,0,0.8926,0.8927,0.8928,0.8954,0.8953,0.8952,0.8951,0.9067,0.9071,0.9075,0,0,0,0,0,0,0,0,0,0,0,0,0,0.8599,0.8602,0.8807,0.8809,0.881,0.8926,0.8927,0.8929,0.8954,0.8953,0.8952,0.8951,0.9066,0.907,0.9075,0,0,0,0,0,0,0,0,0,0,0,0,0,0.87,0.8604,0.8807,0.8837,0.8841,0.8925,0.8927,0.8929,0.8954,0.8953,0.8951,0.895,0.9064,0.907,0.9076,0.9138,0,0,0.9093,0.9096,0,0,0,0,0,0,0,0,0.8694,0.8708,0.8831,0.8835,0.8839,0.8924,0.8896,0.8999,0.8954,0.8911,0.8951,0.8949,0.902,0.9029,0.9054,0.9143,0.9148,0.9094,0.9098,0.91,0.9102,0,0,0,0,0,0,0,0.8687,0.8703,0.8854,0.8833,0.8838,0.8843,0.8856,0.8916,0.8971,0.8914,0.8917,0.893,0.9022,0.9049,0.9057,0.915,0.9094,0.9099,0.9103,0.9105,0.9296,0.9297,0,0,0,0,0,0,0.8676,0.8697,0.885,0.8858,0.8762,0.8848,0.8862,0.8898,0.897,0.898,0.8931,0.8931,0.9039,0.905,0.9061,0.9139,0.91,0.9105,0.9109,0.9294,0.9296,0.9298,0,0,0,0,0,0,0.8671,0.8689,0.8846,0.8778,0.8798,0.8853,0.8892,0.8901,0.8928,0.8983,0.8993,0.8949,0.9039,0.9053,0.9119,0.9144,0.9108,0.9113,0.9292,0.9295,0.9297,0.9295,0,0,0,0,0,0,0.8665,0.8687,0.8712,0.8778,0.8802,0.8902,0.8894,0.8904,0.8938,0.8939,0.9002,0.9011,0.9039,0.911,0.9125,0.9151,0.9118,0.929,0.9293,0.9296,0.9293,0.9297,0.93,0,0,0,0,0,0.8658,0.8706,0.8714,0.8732,0.8835,0.8904,0.8917,0.8949,0.894,0.8965,0.9001,0.9009,0.9139,0.9117,0.9133,0.9162,0.9289,0.9292,0.9296,0.9291,0.9296,0.93,0,0,0,0,0,0,0.8639,0.8715,0.8724,0.8796,0.8844,0.8908,0.8941,0.8953,0.9003,0.9001,0.9037,0.9051,0.9115,0.9145,0.9119,0.9226,0.9213,0.922,0.9204,0.9209,0.9212,0.9204,0.9123,0,0,0,0,0,0.8644,0.8696,0.8758,0.8815,0.8839,0.8886,0.8917,0.8938,0.8988,0.9007,0.9048,0.9095,0.9146,0.9179,0.9229,0.9297,0.9311,0.9325,0.9329,0.9331,0.9337,0.9376,0.9382,0.9309,0.9309,0.9309,0,0,0.8654,0.8701,0.8731,0.8813,0.8852,0.8904,0.8902,0.8956,0.8995,0.9015,0.9081,0.9112,0.9167,0.9234,0.9266,0.9261,0.936,0.9336,0.9338,0.9342,0.938,0.9387,0.9393,0.9312,0.9311,0.9311,0,0,0.8698,0.8739,0.8792,0.8831,0.8892,0.8923,0.8935,0.8998,0.9021,0.9087,0.9104,0.9149,0.9236,0.9275,0.9306,0.9365,0.9375,0.938,0.9399,0.9436,0.9442,0.9447,0.9469,0.9476,0.9386,0.9386,0.9386,0,0.8701,0.8781,0.8816,0.8871,0.8906,0.8929,0.8982,0.9018,0.909,0.9114,0.9108,0.9219,0.9257,0.9334,0.9349,0.9373,0.9388,0.9373,0.9439,0.9444,0.945,0.947,0.9478,0.9386,0.9386,0.9386,0.9386,0,0.8783,0.8838,0.8873,0.8945,0.8984,0.9037,0.9079,0.9114,0.9131,0.9162,0.923,0.9277,0.9337,0.9357,0.9374,0.9436,0.9432,0.9432,0.942,0.9456,0.9477,0.9485,0.9387,0.9386,0.9386,0.9386,0,0,0.8818,0.891,0.8922,0.8956,0.9024,0.9067,0.912,0.9181,0.9211,0.926,0.9306,0.938,0.9381,0.9416,0.9437,0.947,0.9514,0.9466,0.9467,0.9473,0.9586,0.9586,0.9595,0.9521,0.9522,0.9524,0.9582,0,0.8871,0.897,0.9003,0.9084,0.9136,0.9158,0.9205,0.9251,0.9282,0.9329,0.9362,0.9414,0.9411,0.9432,0.9466,0.9502,0.9537,0.9498,0.9563,0.9565,0.9549,0.9605,0.9605,0.9658,0.959,0.9591,0.9592,0,0.8945,0.8998,0.9085,0.9148,0.9171,0.9212,0.9271,0.9316,0.9368,0.9388,0.9428,0.9447,0.9503,0.9488,0.9566,0.9538,0.9567,0.9588,0.9591,0.9598,0.9581,0.9614,0.9675,0.9683,0.9605,0.9604,0.9603,0,0.8963,0.9055,0.912,0.9147,0.9222,0.9251,0.9283,0.9335,0.937,0.942,0.9443,0.9499,0.953,0.9572,0.9605,0.9591,0.968,0.9667,0.9697,0.9696,0.9715,0.9713,0.9781,0.9733,0.9733,0.9732,0.9732,0,0.9018,0.907,0.9129,0.9168,0.9227,0.9265,0.9322,0.9355,0.9401,0.9446,0.9468,0.951,0.9552,0.9599,0.9625,0.9685,0.9699,0.9716,0.9722,0.9714,0.9712,0.9733,0.973,0.9735,0.9734,0.9734,0.9733,0,0.9048,0.9089,0.9161,0.9226,0.9244,0.9285,0.934,0.9379,0.941,0.9468,0.9483,0.9533,0.9589,0.9627,0.9698,0.9716,0.9782,0.9787,0.9765,0.9768,0.9796,0.9792,0.988,0.9893,0.9835,0.9836,0.9836,0,0.9081,0.9122,0.9192,0.9225,0.9258,0.9311,0.9347,0.9385,0.9421,0.9485,0.9516,0.9574,0.9623,0.9712,0.9754,0.9809,0.9816,0.9842,0.9824,0.9815,0.9816,0.9814,0.9818,0.9845,0.9846,0.9846,0.9846,0,0.9135,0.9153,0.9205,0.9265,0.9308,0.9356,0.9404,0.9429,0.9475,0.9515,0.9574,0.9612,0.9686,0.9744,0.9803,0.9835,0.9848,0.9852,0.9862,0.9854,0.9839,0.9848,0.9773,0.985,0.9849,0.9849,0.9849,0.9849,0.9167,0.9205,0.9261,0.9318,0.9359,0.9403,0.9443,0.9481,0.9531,0.9596,0.9615,0.9676,0.9728,0.9809,0.9842,0.989,0.9887,0.9901,0.9905,0.9908,0.9908,0.9832,0.9901,0.9901,0.9901,0.9901,0.9901,0,0.9223,0.926,0.9312,0.938,0.9425,0.9435,0.9489,0.9525,0.958,0.9628,0.9676,0.9744,0.98,0.9846,0.9904,0.9934,0.9941,0.9947,0.9946,0.9953,0.9907,0.9893,0.994,0.994,0.994,0.994,0.994,0.994,0.9257,0.9322,0.9347,0.9432,0.9468,0.953,0.956,0.9601,0.964,0.9715,0.9762,0.9793,0.984,0.9902,0.9953,0.9965,0.9985,0.999,1.0004,0.996,0.9956,0.9952,0.9939,0.9995,0.9995,1.0045,1.0046,1.0046]}]]